Regional Weather Roundup
Issued by NWS

Home | Current Version | Previous Version | Graphics & Text | Print | Product List | Glossary On
Versions: 1 2 3 4 5 6 7 8 9 10 11 12 13 14 15 16 17 18 19 20 21 22 23 24 25 26 27 28 29 30 31 32 33 34 35 36 37 38 39 40 41 42 43 44 45 46 47 48 49 50
000
ASUS43 KBIS 292202
RWRND

NORTH DAKOTA REGIONAL WEATHER ROUNDUP
NATIONAL WEATHER SERVICE BISMARCK ND
500 PM CDT MON JUN 29 2015

NOTE: "FAIR" INDICATES FEW OR NO CLOUDS BELOW 12,000 FEET WITH NO
SIGNIFICANT WEATHER AND/OR OBSTRUCTIONS TO VISIBILITY.


NDZ001>003-009>011-017-292300-
NORTHWEST NORTH DAKOTA

CITY           SKY/WX    TMP DP  RH WIND       PRES   REMARKS
WILLISTON      SUNNY     99  52  20 NW14      29.91F HX  96
MINOT          MOSUNNY   89  56  32 NW7       29.91F
MINOT AFB      SUNNY     93  52  24 NW9       29.90F HX  90
$$

NDZ018>021-031>035-040>046-292300-
SOUTHWEST NORTH DAKOTA

CITY           SKY/WX    TMP DP  RH WIND       PRES   REMARKS
BISMARCK       MOSUNNY   92  54  27 NW7       29.93F HX  90
DICKINSON      SUNNY     91  60  35 W10       29.94F HX  90
GARRISON         N/A     89  58  34 N6        29.93F
HETTINGER ARPT SUNNY     89  60  37 W7        30.00F
$$

NDZ004>008-012>016-024-026-027-054-292300-
NORTHEAST NORTH DAKOTA

CITY           SKY/WX    TMP DP  RH WIND       PRES   REMARKS
GRAND FORKS    CLOUDY    76  65  68 NW8       29.86F
GRND FRKS AFB  SUNNY     75  64  70 N9        29.88S
DEVILS LAKE    SUNNY     77  61  57 NE6       29.92S
$$

NDZ022-023-025-028>030-036>039-047>053-292300-
SOUTHEAST NORTH DAKOTA

CITY           SKY/WX    TMP DP  RH WIND       PRES   REMARKS
FARGO          SUNNY     76  63  64 NW12      29.86S
JAMESTOWN      SUNNY     81  60  48 N8        29.91S
$$




USA.gov is the U.S. government's official web portal to all federal, state and local government web resources and services.